Terug naar catalogus

COSMOS 1948

GLONASS

ActiefNavigatieMEO
NORAD 19165·PAYLOAD·🇷🇺 Russia

Gelanceerd May 21, 1988 vanaf Baikonur Cosmodrome

Loading…

Volgende Passages (komende 24 uur)

TLE

VersSource: Space-Track

Epoch: Sep 13, 2026, 12:04 UTC

1 19165U 88043C   26256.50338911 -.00000009  00000-0  00000-0 0  9996
2 19165  65.0117  70.3128 0004045 314.6703  22.0207  2.13102771297883

Volg COSMOS 1948 in realtime met AllMySat

Download on the App Store